Flag for Germany Past Weather in Garmisch-Partenkirchen, Bavaria, Germany — Yesterday and Last 2 Weeks

Now
63 °F

Mild.


Feels Like: 63 °F
Forecast: 62 / 83 °F
Wind: 1 mph from North

Location: Innsbruck-Flughafen

Current Time: Aug 27, 2016 at 5:13:45 AM

Latest Report: Aug 27, 2016 at 4:20 AM


Visibility: N/A

Pressure: 30.18 "Hg (27.80 "Hg at 699m altitude)

Humidity: 94%

Dew Point: 61 °F

Location of Garmisch-PartenkirchenLocation

Past Weather in Garmisch-Partenkirchen — Graph

°F

Garmisch-Partenkirchen Temperature Yesterday

Maximum temperature yesterday: 88 °F (at 2:50 PM)
Minimum temperature yesterday: 59 °F (at 3:50 AM)
Average temperature yesterday: 73 °F

High & Low Weather Summary for the Past Weeks

 TemperatureHumidityPressure
High88 °F (Aug 26, 2:50 PM)100% (Aug 13, 4:20 AM)30.48 "Hg (Aug 13, 4:20 AM)
Low48 °F (Aug 12, 3:20 AM)31% (Aug 25, 3:20 PM)29.83 "Hg (Aug 18, 3:50 PM)
Average66 °F74%30.15 "Hg
* Reported Aug 12 3:20 AM — Aug 27 3:50 AM, Garmisch-Partenkirchen, Weather by CustomWeather, © 2016

Note: Actual official high and low records may vary slightly from our data, if they occured in-between our weather recording intervals... More about our weather records

Advertising

Garmisch-Partenkirchen Weather History for the Previous 24 Hours

Scroll right to see more
 ConditionsComfort  
Time TempWeatherWind HumidityBarometerVisibility
3:50 AM
Sat, Aug 27
66 °FMild.1 mph88%30.18 "HgN/A
3:20 AM64 °FMild.2 mph88%30.18 "HgN/A
2:50 AM66 °FMild.1 mph88%30.18 "HgN/A
2:20 AM66 °FMild.2 mph83%30.18 "HgN/A
1:50 AM66 °FMild.1 mph88%30.18 "HgN/A
1:20 AM68 °FMild.3 mph88%30.18 "HgN/A
12:50 AM68 °FMild.2 mph88%30.15 "HgN/A
12:20 AM70 °FMild.1 mph83%30.15 "HgN/A
11:50 PM
Fri, Aug 26
70 °FMild.1 mph83%30.15 "HgN/A
11:20 PM70 °FMild.2 mph83%30.15 "HgN/A
10:50 PM72 °FClear.1 mph78%30.15 "Hg10 mi
10:20 PM72 °FClear.1 mph83%30.15 "Hg10 mi
9:50 PM72 °FClear.1 mph83%30.12 "Hg10 mi
9:20 PM73 °FPassing clouds.1 mph78%30.12 "HgN/A
8:50 PM75 °FPassing clouds.1 mph74%30.12 "HgN/A
8:20 PM77 °FPassing clouds.1 mph69%30.09 "HgN/A
7:50 PM79 °FPassing clouds.2 mph65%30.09 "HgN/A
7:20 PM82 °FPassing clouds.5 mph62%30.09 "HgN/A
6:50 PM84 °FPassing clouds.8 mph51%30.07 "HgN/A
6:20 PM86 °FPassing clouds.7 mph52%30.07 "HgN/A
5:50 PM88 °FPassing clouds.7 mph46%30.07 "HgN/A
5:20 PM88 °FPassing clouds.7 mph43%30.07 "HgN/A
4:50 PM88 °FPassing clouds.8 mph43%30.07 "HgN/A
4:20 PM88 °FPassing clouds.8 mph46%30.07 "HgN/A
3:50 PM88 °FPassing clouds.8 mph40%30.07 "HgN/A
3:20 PM88 °FPassing clouds.6 mph40%30.09 "HgN/A
2:50 PM88 °FPassing clouds.6 mph38%30.09 "HgN/A
2:20 PM86 °FPassing clouds.5 mph40%30.09 "HgN/A
1:50 PM84 °FPassing clouds.2 mph43%30.09 "HgN/A
1:20 PM82 °FPassing clouds.3 mph45%30.09 "HgN/A
12:50 PM82 °FPassing clouds.2 mph45%30.12 "HgN/A
12:20 PM81 °FSunny.1 mph48%30.12 "Hg10 mi
11:50 AM79 °FPassing clouds.3 mph51%30.12 "HgN/A
11:20 AM77 °FPassing clouds.3 mph47%30.15 "HgN/A
10:50 AM75 °FSunny.5 mph57%30.15 "Hg10 mi
10:20 AM72 °FPassing clouds.5 mph65%30.15 "HgN/A
9:50 AM70 °FPassing clouds.3 mph69%30.15 "HgN/A
9:20 AM68 °FSunny.5 mph73%30.15 "Hg10 mi
8:50 AM64 °FPassing clouds.3 mph78%30.18 "HgN/A
8:20 AM63 °FPassing clouds.5 mph83%30.18 "HgN/A
7:50 AM64 °FSunny.2 mph78%30.18 "Hg10 mi
7:20 AM59 °FClear.2 mph94%30.18 "Hg10 mi
6:50 AM59 °FClear.2 mph88%30.18 "Hg10 mi
6:20 AM59 °FClear.2 mph88%30.15 "Hg10 mi
5:50 AM59 °FClear.2 mph88%30.15 "Hg10 mi
5:20 AM59 °FCool.5 mph88%30.15 "HgN/A
Weather by CustomWeather, © 2016

See weather overviewHow to use our weather pages